Regional Weather Roundup
Issued by NWS Cleveland, OH

Home | Current Version | Previous Version | Graphics & Text | Print | Product List | Glossary On
Versions: 1 2 3 4 5 6 7 8 9 10 11 12 13 14 15 16 17 18 19 20 21 22 23 24 25 26 27 28 29 30 31 32 33 34 35 36 37 38 39 40 41 42 43 44 45 46 47 48 49 50
000
ASUS41 KCLE 040900
RWRCLE
OHIO REGIONAL WEATHER ROUNDUP
NATIONAL WEATHER SERVICE WILMINGTON, OH
400 AM EST WED MAR 04 2015

NOTE: "FAIR" INDICATES FEW OR NO CLOUDS BELOW 12,000 FEET WITH NO
SIGNIFICANT WEATHER AND/OR OBSTRUCTIONS TO VISIBILITY.

OHZ001>008-015>018-024>027-034-035-043-044-041000-
   NORTHWEST OHIO

CITY           SKY/WX    TMP DP  RH WIND       PRES   REMARKS
DEFIANCE       CLOUDY    34  26  72 W8        29.87R WCI  27
FINDLAY        CLOUDY    34  31  88 W8        29.84R WCI  27
TOLEDO EXPRESS CLOUDY    33  25  72 NW9       29.84S WCI  25
TOLEDO EXEC    CLOUDY    34  27  75 W10       29.85S WCI  26
LIMA           CLOUDY    35  30  82 W8        29.84F WCI  29
$$

OHZ009>014-019>023-028>033-038-089-041000-
   NORTHEAST OHIO

CITY           SKY/WX    TMP DP  RH WIND       PRES   REMARKS
CLE-HOPKINS    CLOUDY    34  29  82 W10       29.85F WCI  26
CLE-LAKEFRONT  CLOUDY    34  30  85 W9        29.83S WCI  27
CUY CO. ARPT   NOT AVBL
LORAIN-ELYRIA  CLOUDY    34  30  85 W7        29.82F WCI  28
ASHTABULA      CLOUDY    34  29  82 W10       29.81R WCI  26
AKRON-CANTON   CLOUDY    35  31  85 W13       29.80F WCI  26
WOOSTER        CLOUDY    34  30  86 NW12      29.82S WCI  25
MANSFIELD      CLOUDY    33  32  96 W6        29.83R WCI  28
YOUNGSTOWN     DRIZZLE   35  32  88 W8        29.79S WCI  29
$$

OHZ042-051>053-060>062-070>072-077>081-041000-
  SOUTHWEST OHIO

CITY           SKY/WX    TMP DP  RH WIND       PRES   REMARKS
CINC-COVINGTON RAIN      37  35  92 NW7       29.89F FOG
CINC-LUNKEN    RAIN      38  36  92 NW5       29.91S FOG
HAMILTON       RAIN      36  36 100 CALM      29.88F FOG
DAYTON         LGT RAIN  34  33  96 NW7       29.87F FOG     WCI  28
WRIGHT-PAT AFB NOT AVBL
DAYTON GENERAL RAIN      36  35  96 CALM      29.85F FOG
WILMINGTON     RAIN      35  33  92 W7        29.87R FOG     WCI  29
$$

OHZ036-037-039>041-045>050-054>059-063>069-073>076-082>088-041000-
  CENTRAL AND SOUTHEAST OHIO

CITY           SKY/WX    TMP DP  RH WIND       PRES   REMARKS
COLUMBUS       RAIN      34  34 100 W7        29.87S FOG     WCI  28
OSU AIRPORT    RAIN      33  32  96 CALM      29.86F FOG
BOLTON FIELD   NOT AVBL
RICKENBACK AFB NOT AVBL
NEWARK         LGT RAIN  35  34  96 CALM      29.86F FOG
MARION         CLOUDY    34  31  88 W8        29.86R FOG     WCI  27
LANCASTER      LGT RAIN  37  35  92 W5        29.88R FOG
ZANESVILLE     RAIN      36  34  92 W5        29.86R FOG
NEW PHILLY     LGT SNOW  36  32  85 W3        29.85R FOG
$$


USA.gov is the U.S. government's official web portal to all federal, state and local government web resources and services.